[[{"header":{"parameterUnit":"m.s-1","parameterCategory":1,"la1":30.2991,"la2":30.254,"lo1":-89.0895,"lo2":-89.0444,"dy":0.0017,"dx":0.0017,"nx":28,"ny":28,"refTime":"2024-06-18T21:00:00:Z","depth":0,"parameterNumber":2,"parameterNumberName":"U-component_of_WINDS"},"data":[0,0,0,0,0,0,0,0,0,0,0,0,0,0,0,0,0,0,0,0,0,0,0,0,0,0,0,0,0,0,0,0,0,0,0,0,0,0,0,0,0,0,0,0,0,0,0,0,0,0,0,0,0,0,0,0,0,0,-10.0924,-10.0924,0,-10.091,-10.091,-10.091,-10.0628,-10.0621,-10.0614,-10.0607,-10.0594,-10.06,-10.0607,0,0,0,0,0,0,0,0,0,0,0,0,0,-10.0709,-10.0714,-10.0924,-10.0924,-10.0924,-10.091,-10.091,-10.091,-10.0629,-10.0621,-10.0612,-10.0604,-10.0592,-10.0599,-10.0607,0,0,0,0,0,0,0,0,0,0,0,0,0,-10.076,-10.0716,-10.0924,-10.0782,-10.0769,-10.091,-10.091,-10.091,-10.0631,-10.062,-10.061,-10.0599,-10.0589,-10.0599,-10.0608,-10.0884,0,0,-10.0637,-10.0642,0,0,0,0,0,0,0,0,-10.0757,-10.0768,-10.0803,-10.0792,-10.0778,-10.076,-10.0829,-10.0901,-10.0634,-10.0684,-10.0607,-10.0594,-10.0658,-10.0661,-10.0682,-10.0883,-10.0883,-10.0638,-10.0644,-10.0648,-10.0651,0,0,0,0,0,0,0,-10.0754,-10.0767,-10.0918,-10.0804,-10.0789,-10.0719,-10.0715,-10.0841,-10.0732,-10.0679,-10.0658,-10.066,-10.0649,-10.0674,-10.068,-10.0883,-10.0638,-10.0647,-10.0652,-10.0656,-10.1306,-10.1317,0,0,0,0,0,0,-10.077,-10.0766,-10.0919,-10.0918,-10.0741,-10.0732,-10.0727,-10.0777,-10.073,-10.0712,-10.067,-10.0647,-10.0663,-10.0669,-10.0679,-10.0995,-10.0648,-10.0657,-10.0663,-10.1295,-10.1309,-10.1321,0,0,0,0,0,0,-10.0766,-10.0786,-10.0919,-10.0836,-10.0848,-10.0747,-10.0806,-10.0782,-10.0806,-10.0723,-10.0702,-10.0715,-10.0655,-10.0665,-10.0834,-10.0991,-10.0661,-10.067,-10.1281,-10.1299,-10.1315,-10.1633,0,0,0,0,0,0,-10.0761,-10.0787,-10.089,-10.0841,-10.0854,-10.1076,-10.0815,-10.079,-10.0823,-10.0794,-10.076,-10.0744,-10.0647,-10.0821,-10.0844,-10.0998,-10.0678,-10.1267,-10.1289,-10.131,-10.1608,-10.1659,-10.1703,0,0,0,0,0,-10.0755,-10.0981,-10.0897,-10.0917,-10.0981,-10.1086,-10.1093,-10.0976,-10.0837,-10.094,-10.0886,-10.0745,-10.0972,-10.0841,-10.0864,-10.1023,-10.1256,-10.1283,-10.1308,-10.1587,-10.1649,-10.1701,0,0,0,0,0,0,-10.1052,-10.0972,-10.0877,-10.1095,-10.1099,-10.1038,-10.1164,-10.1046,-10.109,-10.1061,-10.0915,-10.091,-10.1101,-10.108,-10.0936,-10.1287,-10.1089,-10.1121,-10.1293,-10.1351,-10.1398,-10.1397,-10.0686,0,0,0,0,0,-10.1143,-10.1234,-10.116,-10.1359,-10.1366,-10.1266,-10.1307,-10.1217,-10.1215,-10.1216,-10.1174,-10.1179,-10.125,-10.13,-10.1362,-10.1605,-10.1592,-10.1726,-10.1774,-10.1813,-10.184,-10.1965,-10.2022,-10.1407,-10.1406,-10.1406,0,0,-10.1331,-10.1299,-10.1366,-10.1418,-10.141,-10.1507,-10.1269,-10.1383,-10.1453,-10.1233,-10.1388,-10.136,-10.1355,-10.1562,-10.1651,-10.1549,-10.2008,-10.1846,-10.1878,-10.1884,-10.1997,-10.2056,-10.2107,-10.1424,-10.1421,-10.1418,0,0,-10.1723,-10.171,-10.1871,-10.1869,-10.1861,-10.1793,-10.1833,-10.179,-10.1761,-10.1916,-10.1752,-10.1835,-10.1962,-10.1964,-10.1982,-10.2377,-10.2247,-10.2402,-10.2647,-10.277,-10.2818,-10.2861,-10.2998,-10.3049,-10.2431,-10.2432,-10.2432,0,-10.1957,-10.2097,-10.197,-10.2094,-10.2121,-10.1927,-10.209,-10.2094,-10.2108,-10.213,-10.2017,-10.2171,-10.2155,-10.2358,-10.2454,-10.2477,-10.2516,-10.2402,-10.2822,-10.2863,-10.29,-10.3029,-10.3082,-10.245,-10.2448,-10.2446,-10.2444,0,-10.2384,-10.2484,-10.2617,-10.2633,-10.2675,-10.2819,-10.2713,-10.2772,-10.2679,-10.2624,-10.2783,-10.2757,-10.2808,-10.2851,-10.2763,-10.3042,-10.2979,-10.2848,-10.2644,-10.298,-10.3098,-10.3147,-10.2476,-10.247,-10.2464,-10.246,0,0,-10.2959,-10.2904,-10.2954,-10.2958,-10.2935,-10.301,-10.3145,-10.3195,-10.3246,-10.3264,-10.3371,-10.3484,-10.3361,-10.3382,-10.3292,-10.3401,-10.3711,-10.3254,-10.3252,-10.3337,-10.4014,-10.411,-10.4169,-10.3627,-10.3636,-10.3643,-10.4013,0,-10.3333,-10.3558,-10.3448,-10.3686,-10.3775,-10.3594,-10.3711,-10.371,-10.3663,-10.3732,-10.3679,-10.376,-10.3594,-10.3605,-10.3705,-10.3653,-10.3844,-10.3625,-10.3724,-10.3729,-10.3725,-10.4231,-10.4333,-10.4683,-10.4059,-10.4066,-10.4072,0,-10.3799,-10.3834,-10.4081,-10.404,-10.4073,-10.4181,-10.4216,-10.4286,-10.4281,-10.4239,-10.4264,-10.4149,-10.4277,-10.4082,-10.4256,-10.4109,-10.4144,-10.4125,-10.4136,-10.4136,-10.3917,-10.4242,-10.4792,-10.4843,-10.4145,-10.4139,-10.4134,0,-10.4187,-10.4297,-10.4457,-10.4467,-10.4426,-10.4505,-10.4491,-10.4476,-10.4513,-10.4546,-10.4567,-10.4617,-10.4642,-10.4683,-10.4584,-10.445,-10.4771,-10.4567,-10.4737,-10.474,-10.4808,-10.4805,-10.5368,-10.4841,-10.484,-10.4839,-10.4838,0,-10.4614,-10.4771,-10.4631,-10.473,-10.49,-10.4774,-10.4946,-10.4913,-10.4902,-10.499,-10.4839,-10.4926,-10.4792,-10.4866,-10.479,-10.4944,-10.4959,-10.4927,-10.4904,-10.4937,-10.4941,-10.4954,-10.4925,-10.4853,-10.485,-10.4847,-10.4845,0,-10.5074,-10.4987,-10.515,-10.5097,-10.5088,-10.5216,-10.517,-10.5259,-10.5203,-10.5317,-10.5336,-10.5248,-10.5326,-10.5233,-10.5305,-10.5254,-10.5462,-10.5406,-10.5463,-10.5445,-10.5619,-10.5602,-10.6206,-10.6277,-10.571,-10.5716,-10.572,0,-10.5349,-10.5465,-10.5425,-10.5473,-10.5469,-10.5549,-10.5585,-10.5467,-10.5511,-10.5515,-10.5604,-10.567,-10.5715,-10.585,-10.5792,-10.5846,-10.5786,-10.5995,-10.5793,-10.5823,-10.5784,-10.5776,-10.5786,-10.6034,-10.6041,-10.6046,-10.6051,0,-10.5845,-10.5796,-10.5854,-10.5898,-10.5946,-10.5975,-10.5992,-10.6041,-10.5917,-10.5975,-10.6053,-10.6089,-10.6162,-10.6229,-10.6267,-10.6252,-10.6132,-10.6116,-10.6157,-10.619,-10.6216,-10.62,-10.5569,-10.6101,-10.6096,-10.6092,-10.6089,-10.6087,-10.6217,-10.631,-10.6297,-10.6366,-10.6367,-10.6387,-10.6467,-10.6421,-10.6484,-10.6532,-10.646,-10.6558,-10.655,-10.6588,-10.6588,-10.6663,-10.6573,-10.6634,-10.6649,-10.6665,-10.6689,-10.621,-10.667,-10.6668,-10.6667,-10.6666,-10.6664,0,-10.67,-10.6683,-10.6748,-10.6777,-10.6832,-10.6715,-10.6729,-10.6782,-10.6869,-10.6873,-10.6921,-10.7011,-10.7075,-10.7024,-10.7077,-10.7147,-10.7092,-10.7164,-10.7155,-10.7153,-10.6768,-10.6724,-10.7207,-10.7207,-10.7207,-10.7207,-10.7207,-10.7206,-10.6958,-10.7109,-10.706,-10.721,-10.7191,-10.7284,-10.7302,-10.732,-10.7321,-10.7428,-10.748,-10.7446,-10.7427,-10.7478,-10.7532,-10.7515,-10.754,-10.7631,-10.7594,-10.7234,-10.7181,-10.713,-10.7088,-10.7639,-10.7639,-10.7972,-10.7975,-10.7978]},{"header":{"parameterUnit":"m.s-1","parameterCategory":1,"la1":30.2991,"la2":30.254,"lo1":-89.0895,"lo2":-89.0444,"dy":0.0017,"dx":0.0017,"nx":28,"ny":28,"refTime":"2024-06-18T21:00:00:Z","depth":0,"parameterNumber":3,"parameterNumberName":"V-component_of_WINDS"},"data":[0,0,0,0,0,0,0,0,0,0,0,0,0,0,0,0,0,0,0,0,0,0,0,0,0,0,0,0,0,0,0,0,0,0,0,0,0,0,0,0,0,0,0,0,0,0,0,0,0,0,0,0,0,0,0,0,0,0,-0.104,-0.104,0,-0.1082,-0.1082,-0.1082,-0.1164,-0.1165,-0.1167,-0.1169,-0.1209,-0.1208,-0.1208,0,0,0,0,0,0,0,0,0,0,0,0,0,-0.1027,-0.1026,-0.104,-0.104,-0.1041,-0.1081,-0.1082,-0.1083,-0.1164,-0.1166,-0.1167,-0.1169,-0.1209,-0.1208,-0.1208,0,0,0,0,0,0,0,0,0,0,0,0,0,-0.1047,-0.1026,-0.104,-0.1086,-0.1091,-0.1081,-0.1082,-0.1083,-0.1163,-0.1166,-0.1168,-0.117,-0.1209,-0.1208,-0.1208,-0.1155,0,0,-0.1206,-0.1205,0,0,0,0,0,0,0,0,-0.1045,-0.1047,-0.1079,-0.1083,-0.1088,-0.112,-0.1092,-0.1107,-0.1163,-0.1136,-0.1169,-0.1171,-0.1177,-0.1179,-0.1182,-0.1157,-0.1159,-0.1206,-0.1205,-0.1205,-0.1205,0,0,0,0,0,0,0,-0.1044,-0.1046,-0.1056,-0.1079,-0.1085,-0.1104,-0.1109,-0.1095,-0.1142,-0.1138,-0.1144,-0.1148,-0.118,-0.1182,-0.1183,-0.116,-0.1206,-0.1205,-0.1205,-0.1204,-0.1092,-0.1089,0,0,0,0,0,0,-0.1036,-0.1044,-0.1055,-0.1058,-0.1072,-0.1102,-0.1108,-0.1107,-0.1143,-0.115,-0.1146,-0.1152,-0.1182,-0.1184,-0.1185,-0.1125,-0.1205,-0.1204,-0.1204,-0.1094,-0.1091,-0.1088,0,0,0,0,0,0,-0.1036,-0.1036,-0.1053,-0.1052,-0.1056,-0.11,-0.1098,-0.1107,-0.1109,-0.1149,-0.1157,-0.114,-0.1184,-0.1186,-0.1162,-0.1127,-0.1204,-0.1203,-0.1097,-0.1093,-0.109,-0.1004,0,0,0,0,0,0,-0.1035,-0.1036,-0.1017,-0.1051,-0.1056,-0.1031,-0.1096,-0.1106,-0.1108,-0.1116,-0.1145,-0.1152,-0.1186,-0.1162,-0.1161,-0.1128,-0.1203,-0.1101,-0.1096,-0.1091,-0.101,-0.0998,-0.0987,0,0,0,0,0,-0.1034,-0.0992,-0.1016,-0.1017,-0.1034,-0.1029,-0.1031,-0.1072,-0.1105,-0.1086,-0.1111,-0.1151,-0.1131,-0.1159,-0.1158,-0.1124,-0.1103,-0.1097,-0.1091,-0.1016,-0.1,-0.0988,0,0,0,0,0,0,-0.0952,-0.0997,-0.1025,-0.0992,-0.1006,-0.1042,-0.102,-0.1054,-0.1058,-0.1066,-0.1115,-0.1121,-0.109,-0.1105,-0.1135,-0.1074,-0.1123,-0.1117,-0.1066,-0.1052,-0.104,-0.1037,-0.1202,0,0,0,0,0,-0.093,-0.0923,-0.0963,-0.093,-0.0935,-0.0976,-0.0975,-0.1005,-0.1021,-0.1027,-0.1051,-0.1063,-0.106,-0.1057,-0.1056,-0.1013,-0.1019,-0.0989,-0.0977,-0.0968,-0.0961,-0.0938,-0.0924,-0.1069,-0.1069,-0.1069,0,0,-0.0885,-0.0909,-0.0901,-0.0914,-0.0928,-0.0918,-0.0981,-0.0968,-0.0961,-0.1025,-0.1004,-0.1021,-0.1038,-0.1004,-0.099,-0.1016,-0.0923,-0.096,-0.0952,-0.0951,-0.093,-0.0917,-0.0904,-0.1065,-0.1066,-0.1067,0,0,-0.0798,-0.0816,-0.079,-0.0802,-0.0823,-0.085,-0.0843,-0.0874,-0.0888,-0.0867,-0.0915,-0.0906,-0.09,-0.091,-0.0914,-0.0827,-0.0863,-0.0825,-0.0765,-0.0741,-0.073,-0.072,-0.0688,-0.0676,-0.0819,-0.0819,-0.0819,0,-0.0739,-0.0727,-0.0772,-0.0756,-0.0759,-0.0817,-0.079,-0.0799,-0.0818,-0.0818,-0.0847,-0.0838,-0.0854,-0.0822,-0.0801,-0.0803,-0.0795,-0.0823,-0.0728,-0.0719,-0.071,-0.068,-0.0668,-0.0814,-0.0815,-0.0815,-0.0816,0,-0.0653,-0.0643,-0.062,-0.0637,-0.0637,-0.0615,-0.0655,-0.065,-0.0679,-0.0702,-0.0679,-0.07,-0.0704,-0.0698,-0.0727,-0.0669,-0.0684,-0.0719,-0.077,-0.0691,-0.0663,-0.0652,-0.0807,-0.0809,-0.081,-0.0812,0,0,-0.0517,-0.0557,-0.0547,-0.0555,-0.0581,-0.0574,-0.0553,-0.0557,-0.0551,-0.0561,-0.0544,-0.0536,-0.0569,-0.0573,-0.0603,-0.0582,-0.051,-0.062,-0.0621,-0.0598,-0.0446,-0.0419,-0.0405,-0.0534,-0.0532,-0.053,-0.0444,0,-0.0434,-0.0404,-0.0442,-0.0402,-0.0393,-0.0446,-0.0428,-0.0441,-0.0462,-0.0456,-0.0478,-0.0471,-0.0515,-0.0518,-0.05,-0.0523,-0.048,-0.0529,-0.0517,-0.0516,-0.0511,-0.039,-0.0362,-0.028,-0.0434,-0.0432,-0.0431,0,-0.0335,-0.034,-0.0299,-0.0326,-0.0323,-0.0307,-0.0312,-0.0306,-0.0321,-0.0337,-0.0341,-0.0376,-0.0356,-0.0405,-0.0377,-0.041,-0.0407,-0.0417,-0.0415,-0.0415,-0.0468,-0.0386,-0.0255,-0.0242,-0.0414,-0.0415,-0.0417,0,-0.0238,-0.0235,-0.021,-0.0214,-0.0245,-0.0231,-0.0243,-0.0261,-0.026,-0.0264,-0.0263,-0.0265,-0.0265,-0.0264,-0.0298,-0.0331,-0.0266,-0.0318,-0.0277,-0.0276,-0.0261,-0.0262,-0.0126,-0.026,-0.026,-0.0261,-0.0261,0,-0.0142,-0.0114,-0.0166,-0.015,-0.012,-0.0164,-0.0132,-0.015,-0.0164,-0.0151,-0.0197,-0.0184,-0.023,-0.0221,-0.0248,-0.022,-0.022,-0.0231,-0.0238,-0.0227,-0.0225,-0.0225,-0.0232,-0.0257,-0.0258,-0.0259,-0.0259,0,-0.0029,-0.0062,-0.0038,-0.0068,-0.0075,-0.0052,-0.0077,-0.0063,-0.0086,-0.0069,-0.0067,-0.0103,-0.0095,-0.0128,-0.0126,-0.0144,-0.0101,-0.0119,-0.0097,-0.0102,-0.0059,-0.0062,0.0081,0.0099,-0.0047,-0.0045,-0.0044,0,0.0035,0.0055,0.0027,0.0032,0.0023,0.0031,0.0032,-0.0009,-0.0006,-0.0019,-0.0003,0.0001,0.0003,0.0019,-0.0006,-0.0004,-0.0021,0.003,-0.0021,-0.0009,-0.0018,-0.0019,-0.0016,0.004,0.0042,0.0044,0.0045,0,0.0152,0.0135,0.0138,0.0136,0.0138,0.0134,0.0128,0.0135,0.0091,0.0097,0.0105,0.0106,0.0109,0.0115,0.0113,0.0102,0.0067,0.0061,0.007,0.0083,0.0095,0.009,-0.0067,0.0058,0.0056,0.0055,0.0055,0.0054,0.0243,0.0259,0.0243,0.0248,0.0239,0.0234,0.0247,0.0226,0.0231,0.023,0.0206,0.0219,0.0206,0.0199,0.0192,0.0203,0.0179,0.0193,0.0197,0.0201,0.0209,0.0093,0.0202,0.0202,0.0201,0.0201,0.0201,0,0.0359,0.0346,0.0351,0.0344,0.0349,0.0315,0.0306,0.0313,0.0325,0.0316,0.0318,0.0329,0.0334,0.0311,0.0314,0.0327,0.0311,0.0329,0.0328,0.0327,0.0229,0.0221,0.0342,0.0342,0.0342,0.0342,0.0342,0.0342,0.0419,0.0445,0.0427,0.0449,0.0436,0.0448,0.0446,0.0443,0.0435,0.0448,0.0453,0.0437,0.0423,0.0425,0.043,0.0423,0.0426,0.045,0.0438,0.0347,0.0333,0.032,0.0312,0.0451,0.0451,0.0535,0.0536,0.0537]}]]